COSMOS 1275 DEB, 42153

Orbit data source: Space-Track

COSMOS 1275 DEB, 42153 is space debris in LEO originally from a launch on Thu, 04 Jun 1981 UTC launched from the Plesetsk Missile And Space Complex (PKMTR). Debris objects in space refer to the collection of defunct objects orbiting the Earth. Examples of debris include non-operational satellites, rocket bodies, and fragments generated from explosions, collisions, or faulty payload assembly.

Loading next visibility...
Identifier
42153, 1981-053RR
Orbit
LEO
Country
Flag of CISCIS
Related business
Manufacturer
Unknown
Mission
Spacecraft
Bus & Motor
Unknown
Mass
Unknown
Launch date (UTC)
1981-06-04 (45 years ago)
Launch vehicle
Unknown
Launch site
Plesetsk Missile And Space Complex (PKMTR)
Object type
Payload
Rocket body
Debris
Shape & HBR
Unknown shape, 0.1 m
Radar Cross Section
Small (<0.1 m²)

Expand to show TLE details & history
Last TLE update: 2 weeks ago

TLE from 2 weeks ago
0 COSMOS 1275 DEB
1 42153U 81053RR  26022.92114627  .00004502  00000-0  21685-2 0  9991
2 42153  82.8352 254.8957 0042011 292.2467  67.4260 14.18097858608702
Epoch: 2026-01-22T22:06Z
TLE epoch observation values (Epoch: 2026-01-22T22:06:27.037Z)
Latitude
0.00001°
Longitude
161.01567°
Altitude
823.229 km
Speed
7.447 km/s
True Right ascension
16h 59m 34s
True Declination
0° 00' 00"
Sunlit
Object was in daylight at epoch
Visualization orbit readout
Latitude
Unknown
Longitude
Unknown
Altitude
Unknown
Speed
Unknown
Apparent Right ascension
Unknown
Apparent Declination
Unknown
Sunlit
N/A
Visualization observer readout
Local Sidereal Time
20:38:59
Azimuth
Unknown
Elevation
Unknown
Doppler factor
Unknown
Orbital elements
Apogee altitude
859.164 km
Perigee altitude
798.609 km
Semi-major axis
7,207.023 km
Eccentricity
0.0042
Inclination
82.8352°
RAAN
254.8957°
Arg. of periapsis
292.2467°
True anomaly
67.87142°
Mean anomaly
67.426°
Eccentric anomaly
67.64862°
Mean motion
3.54739 °/min
Orbital period
101.48 mins
BSTAR
0.0021685
Loading maneuver chart data...
Computing Atmospheric mass density...
Loading historical data...
Loading historical data...
Loading historical data...
Loading historical data...
Loading historical data...
Loading historical data...
Loading historical data...

Documentation

Showing up to 5 results
|